Regional Weather Roundup
Issued by NWS

Home | Current Version | Previous Version | Graphics & Text | Print | Product List | Glossary On
Versions: 1 2 3 4 5 6 7 8 9 10 11 12 13 14 15 16 17 18 19 20 21 22 23 24 25 26 27 28 29 30 31 32 33 34 35 36 37 38 39 40 41 42 43 44 45 46 47 48 49 50
000
ASUS43 KMKX 271013
RWRWI

WISCONSIN REGIONAL WEATHER ROUNDUP
NATIONAL WEATHER SERVICE MILWAUKEE/SULLIVAN WI
500 AM CDT WED MAY 27 2015

NOTE: "FAIR" INDICATES FEW OR NO CLOUDS BELOW 12,000 FEET WITH NO
SIGNIFICANT WEATHER AND/OR OBSTRUCTIONS TO VISIBILITY.

WIZ001-002-006>008-014>016-023>028-271100-
NORTHWEST WISCONSIN

CITY           SKY/WX    TMP DP  RH WIND       PRES   REMARKS
SUPERIOR ARPT  CLOUDY    50  49  97 SW7       29.79R
ASHLAND        CLOUDY    53  52  96 SW6       29.79R
HAYWARD        CLOUDY    52  51  97 SW3       29.82R
SIREN          CLOUDY    53  52  97 CALM      29.84R
CUMBERLAND     CLOUDY    52  50  93 W5        29.84R
RICE LAKE      CLOUDY    54  52  94 W5        29.85R
CHETEK         CLOUDY    54  53  99 CALM      29.84R
LADYSMITH      DRIZZLE   55  54  97 W5        29.83R
EAU CLAIRE     NOT AVBL
MENOMONIE      CLOUDY    56  56  99 W3        29.84R
NEW RICHMOND   CLOUDY    54  54 100 CALM      29.85R FOG
OSCEOLA        CLOUDY    53  53 100 CALM      29.87R
$$

WIZ003>005-009-010-017-018-271100-
NORTH CENTRAL WISCONSIN

CITY           SKY/WX    TMP DP  RH WIND       PRES   REMARKS
MANITOWISH WTR LGT RAIN  52  52 100 NW6       29.76R
ARBOR VITAE    LGT RAIN  53  52  95 NW7       29.76R
WOODRUFF       LGT RAIN  53  52  95 NW7       29.76R
RHINELANDER    LGT RAIN  53  52  96 W6        29.76R
EAGLE RIVER    RAIN      52  52  99 N5        29.74R
LAND O LAKES   DRIZZLE   52  52  99 NW8G17    29.75R
PHILLIPS       LGT RAIN  51  51 100 NW3       29.78R
TOMAHAWK       RAIN      52  50  95 W6        29.77R
MEDFORD        DRIZZLE   52  52  98 W6        29.80R
MERRILL        DRIZZLE   54  54 100 W8        29.78R
$$

WIZ029-030-035-036-043>047-271100-
CENTRAL WISCONSIN

CITY           SKY/WX    TMP DP  RH WIND       PRES   REMARKS
WAUSAU         LGT RAIN  55  54  96 NW10      29.76R
MOSINEE        NOT AVBL
MARSHFIELD     CLOUDY    56  53  90 W10G20    29.81R
STEVENS POINT  LGT RAIN  55  54  97 W8G17     29.78R
WAUPACA        CLOUDY    61  59  94 W14G20    29.76R
WAUTOMA        CLOUDY    61  61 100 W13       29.79R
WISC RAPIDS    CLOUDY    58  54  86 NW9       29.81R
CAMP DOUGLAS   MOCLDY    59  59 100 W9        29.81
$$

WIZ011>013-019>022-031-037>040-048>050-271100-
NORTHEAST WISCONSIN

CITY           SKY/WX    TMP DP  RH WIND       PRES   REMARKS
ANTIGO         DRIZZLE   54  54  99 NW10      29.74R
SHAWANO        CLOUDY    61  58  90 W8G16     29.71R
OCONTO         CLOUDY    61  61 100 W14G21    29.68R
STURGEON BAY   CLOUDY    61  57  88 SW20      29.70R
GREEN BAY      CLOUDY    63  58  83 W16       29.73R
MANITOWOC      NOT AVBL
APPLETON       CLOUDY    61  55  82 W16       29.75R
CLINTONVILLE   CLOUDY    59  55  88 W10       29.72R
OSHKOSH        CLOUDY    62  56  80 W9G20     29.77R
$$

WIZ032>034-041-042-053>061-271100-
SOUTHWEST WISCONSIN

CITY           SKY/WX    TMP DP  RH WIND       PRES   REMARKS
LA CROSSE      LGT RAIN  60  56  86 NW8       29.84R
SPARTA         DRIZZLE   58  57  96 W3        29.84R
VIROQUA        CLOUDY    57  57 100 NW10      29.84R
BOSCOBEL       CLOUDY    61  58  90 SW5       29.86R
PRAIRIE DU CHI CLOUDY    60  57  87 W3        29.86R
PLATTEVILLE    CLOUDY    60  59  97 W7        29.86R
$$

WIZ056-057-062-063-064-067-068-271100-
SOUTH CENTRAL WISCONSIN

CITY           SKY/WX    TMP DP  RH WIND       PRES   REMARKS
REEDSBURG      CLOUDY    59  57  93 SW6       29.82R
BARABOO/DELLS  CLOUDY    59  56  92 W5        29.82R
LONE ROCK      CLOUDY    60  58  92 W6        29.84R
MINERAL POINT  CLOUDY    61  59  94 W6        29.85R
MADISON        CLOUDY    61  57  87 VRB5      29.83R
MIDDLETON      CLOUDY    61  60  94 W9        29.84R
WATERTOWN      CLOUDY   N/A N/A N/A SW5       29.82R
MONROE         CLOUDY    61  59  94 W9        29.85R
JANESVILLE     CLOUDY    63  59  88 W5        29.84R
$$

WIZ051-052-058>065-066-070>072-271100-
SOUTHEAST WISCONSIN

CITY           SKY/WX    TMP DP  RH WIND       PRES   REMARKS
MILWAUKEE      MOCLDY    63  60  90 SW8       29.83R
WAUKESHA       CLOUDY    59  55  88 SW6       29.84R
MILWAUKEE/TIMM PTCLDY    59  54  82 SW6       29.83R
RACINE         MOCLDY    63  60  90 SW8       29.85R
BURLINGTON     MOCLDY    60  59  97 SW6       29.84R
KENOSHA        MOCLDY    64  62  93 SW9       29.85R
FOND DU LAC    MOCLDY    61  56  83 SW8       29.79R
SHEBOYGAN      MOCLDY    60  56  86 W13       29.78R
WEST BEND      MOCLDY    59  55  88 SW7       29.80R
JUNEAU         CLOUDY    58  57  94 SW9       29.83R
$$

LSZ147-162-271100-
LAKE SUPERIOR

STATION/POSITION TIME  TEMP    WIND        PRES    WAVE
                       AIR SEA DIR/SP/G            HT/PER
                 (UTC) (F)     (DEG/KT/KT) (MB)    (FT/S)
W MID LAKE BUOY  0850   40 37  230/  6/  8 1076.0R   0
DEVILS ISLAND    0900   48     230/ 14/ 15 1079.0S
PORT WING        0940   52     190/  6/  7 1088.0R
SAXON HARBOR     0900   51     190/  2/  6 1081.0R
$$

LMZ867-665-643>646-271100-
LAKE MICHIGAN

STATION/POSITION TIME  TEMP    WIND        PRES    WAVE
                       AIR SEA DIR/SP/G            HT/PER
                 (UTC) (F)     (DEG/KT/KT) (MB)    (FT/S)
CHAMBERS ISLAND  0900   58     190/  3/ 11 1034.0R
N MID LAKE BUOY  0850   43 37  190/ 17/ 19 1037.0F   4/ 5
NORTHPORT PIER   0800   51     150/  6/ 10 1034.0S
SISTER BAY       0933   58     210/ 10/ 12   N/A
ALGOMA LAKESHORE 0908          250/ 21/ 28   N/A
KEWAUNEE LAKESHO 0900   64     250/ 14/ 22 1045.0R
SHEBOYGAN LAKESH 0900   62     230/ 14/ 16 1078.0R
PORT WASHINGTON  0840   63     250/  8/ 13   N/A
ATWATER BUOY     0900   60 44  230/  8/ 10   N/A
MILWAUKEE LAKESH 0900   64     240/  7/  9   N/A
S MID LAKE BUOY  0850   44 38  200/ 10/ 12   N/A     2/ 4
KENOSHA   LAKESH 0900   64     230/  7/  9   N/A
$$

TC  - TEMPERATURE IN CELSIUS
VSB - VISIBILITY IN STATUTE MILES
WCI - WIND CHILL INDEX
HX  - HEAT INDEX



USA.gov is the U.S. government's official web portal to all federal, state and local government web resources and services.